Wind_Speed
43 44 44 42 41 42 43 43 44 45 46 47 47 47 47 47 46 44 43 45 47 48 48 47 47 47 46 45 43 42 42 39 35 32 30 29 29 28 28 28 27 26 24 23 24 24 24 24 25 25 26 27 28 28 28 28 27 26 26 27 28 29 29 29 29 30 31 31 31 31 31 31 31 33 34 34 35 35 36 37 37 36 36 36 37 37
45 46 45 43 44 45 44 43 44 45 45 46 46 47 47 47 46 44 45 45 46 47 46 45 46 46 46 44 42 42 41 39 36 34 31 29 28 27 28 29 29 28 27 27 28 28 28 28 28 28 28 28 29 30 30 30 29 27 26 26 27 28 29 29 29 30 30 31 32 32 32 32 32 33 34 34 35 35 36 37 37 37 37 37 37 37
48 47 43 42 44 44 43 43 44 44 44 45 46 46 46 45 44 44 44 44 45 45 45 45 45 45 44 41 41 40 38 38 38 36 33 31 29 28 28 29 30 31 31 33 33 34 34 33 32 31 31 31 30 30 31 31 30 28 27 27 28 29 29 29 30 31 32 32 33 34 34 35 35 35 35 36 37 37 37 37 38 38 38 38 38 38
48 44 40 40 42 42 41 42 42 42 42 43 43 43 43 43 43 44 43 43 43 43 44 45 45 44 42 39 39 39 36 37 39 37 35 34 33 32 32 32 32 33 35 37 38 39 38 37 36 34 33 32 32 32 32 31 31 30 30 30 30 30 30 30 31 32 34 35 36 37 37 37 38 38 38 39 39 40 40 40 40 40 40 40 40 40
45 40 37 38 40 41 40 39 39 39 40 41 41 41 40 40 41 42 42 42 42 42 43 45 47 47 42 37 36 37 37 39 40 37 36 36 36 37 38 37 36 37 38 40 41 42 41 41 40 38 36 34 33 34 34 34 34 34 34 34 33 33 32 32 33 35 36 36 38 39 39 40 40 41 41 42 42 42 43 43 43 43 43 43 42 41
40 35 35 36 38 40 40 38 37 38 39 39 38 39 38 38 39 39 40 41 42 42 42 44 47 48 44 38 34 35 39 43 43 40 37 36 37 38 41 41 40 41 42 43 44 45 45 44 42 41 39 36 35 35 36 37 37 38 39 40 40 40 39 38 38 39 39 39 40 41 42 42 43 44 44 44 44 45 45 46 46 46 46 45 44 44
37 34 34 34 35 37 38 37 38 40 40 38 37 37 38 38 38 38 39 40 43 44 45 46 46 46 47 42 36 37 41 43 43 42 40 40 40 40 42 43 44 45 45 45 45 46 48 47 46 43 41 39 37 38 39 41 42 42 43 44 46 47 47 45 44 43 42 43 43 44 44 45 46 46 47 47 47 47 48 48 49 49 49 48 48 48
35 35 35 34 35 36 36 37 40 42 42 41 39 38 38 38 39 39 39 41 43 45 48 47 43 45 50 47 41 41 44 44 44 45 45 45 45 45 47 48 47 47 47 46 45 46 46 47 47 46 44 42 41 40 41 44 46 47 48 48 49 51 52 52 51 48 47 47 47 47 47 48 48 48 49 49 50 50 51 51 51 52 52 52 52 52
37 37 37 38 39 38 38 38 40 42 42 42 41 41 41 40 40 40 41 42 43 46 49 45 40 44 50 49 47 48 48 48 48 49 49 50 50 50 51 52 51 49 47 45 43 43 44 44 45 45 44 44 43 42 43 45 48 50 52 53 53 54 56 56 56 55 53 52 51 51 51 51 50 50 51 51 51 52 52 53 53 54 54 55 55 55
40 40 40 41 41 40 40 40 40 40 41 41 42 42 42 42 42 41 42 43 44 47 48 43 41 46 49 49 49 50 51 52 53 54 56 56 57 56 54 53 52 49 46 44 41 39 40 40 43 45 45 43 43 43 44 47 49 52 54 56 57 58 59 60 60 60 59 57 55 55 54 54 53 53 53 53 54 54 54 54 55 55 56 56 57 58
42 42 42 41 41 40 40 40 40 40 41 41 42 43 43 43 43 43 44 44 46 48 45 42 44 47 49 50 49 50 52 54 55 58 60 61 60 59 55 51 48 47 44 43 39 37 37 39 42 46 47 45 43 44 45 47 50 53 56 59 60 61 62 63 64 65 64 61 59 58 57 56 56 56 56 57 57 57 57 57 57 57 57 58 59 60
41 40 39 39 39 39 39 39 40 41 41 42 43 43 43 44 44 45 46 46 47 47 44 44 47 49 51 51 50 52 54 56 57 59 60 61 60 58 54 49 46 45 45 43 40 37 39 40 42 46 50 48 44 44 46 48 50 53 57 60 62 64 65 65 67 70 69 66 63 61 59 59 59 60 60 60 60 60 60 60 60 60 60 61 62 63
39 38 38 38 38 38 39 40 41 42 43 43 43 43 44 45 46 47 47 47 48 47 46 47 50 53 55 53 54 56 57 58 60 61 61 60 59 56 53 50 47 45 44 42 38 38 41 44 44 46 51 52 47 45 46 48 51 53 56 60 63 66 68 69 70 72 73 69 66 64 63 63 63 63 63 63 63 62 62 62 63 63 63 63 64 65
39 38 39 39 39 40 42 43 43 44 45 45 45 44 45 46 47 48 48 49 50 49 49 50 53 57 58 56 57 58 59 61 62 63 61 59 57 56 54 51 49 47 44 40 37 39 44 47 47 47 51 54 52 49 48 49 51 53 55 59 63 67 70 72 73 75 75 72 68 66 66 66 66 66 66 65 65 65 64 64 65 65 66 66 66 67
43 43 43 43 44 45 46 47 48 49 49 48 48 48 48 47 47 48 48 49 51 51 52 54 56 59 58 58 59 60 61 62 62 60 59 57 57 55 54 52 50 48 45 43 41 42 47 50 51 51 53 55 56 54 53 53 54 55 57 59 63 66 69 72 75 76 75 72 69 68 68 69 69 69 68 68 67 67 67 66 66 67 67 68 69 70
49 49 49 48 48 48 48 50 51 50 50 50 50 50 49 48 47 49 50 51 53 56 56 56 57 60 59 59 61 61 60 59 58 57 55 55 55 54 54 54 52 51 49 48 47 46 48 51 52 52 53 55 57 58 58 58 58 59 60 61 62 65 67 70 71 72 72 71 71 71 70 70 69 69 69 69 69 69 69 69 69 69 70 70 71 72
52 52 52 50 50 48 48 50 51 50 49 50 50 49 49 49 50 53 55 56 58 61 61 59 60 61 61 61 61 59 56 55 54 53 53 54 54 54 55 55 55 55 54 54 54 53 54 55 55 55 56 57 60 63 64 63 62 61 61 62 63 65 67 69 70 71 72 73 73 72 71 70 68 67 66 67 68 69 69 70 71 72 73 74 74 75
51 52 51 50 50 50 49 49 49 48 47 47 48 49 50 53 54 56 59 60 62 64 65 63 62 61 60 61 60 56 53 52 52 52 53 53 54 55 55 56 57 57 57 57 57 58 59 59 59 59 60 62 65 67 69 68 67 65 64 64 65 67 69 70 72 73 73 73 72 71 70 70 69 69 68 68 68 69 70 72 73 74 76 77 78 78
50 50 50 49 50 51 50 49 49 49 48 49 51 53 55 57 58 58 60 62 63 65 65 64 62 61 60 59 57 54 52 51 51 52 53 54 55 56 56 57 58 59 59 60 60 60 60 60 62 64 66 68 69 70 71 71 71 70 69 68 68 69 70 71 72 72 72 72 71 71 72 72 73 73 73 73 74 74 74 75 76 77 78 79 79 80
51 52 53 52 52 53 52 51 51 52 54 54 56 58 58 59 60 60 61 63 64 64 64 63 62 60 58 55 53 53 52 51 51 52 54 55 56 56 57 59 60 61 62 63 63 63 64 65 67 68 70 71 72 73 74 75 75 74 73 72 72 72 71 71 72 72 73 73 74 75 76 76 77 76 76 75 75 75 75 76 78 80 80 80 80 81
53 55 56 55 54 54 54 53 54 55 57 58 58 58 58 58 58 59 61 60 61 62 61 61 61 58 54 52 52 53 52 52 53 53 54 55 56 57 59 60 61 62 63 64 66 67 68 69 70 71 73 74 75 76 76 76 76 76 76 76 75 75 75 74 74 75 76 77 78 78 78 78 78 79 79 78 78 78 78 78 79 81 82 83 83 82
56 57 58 57 56 56 56 56 57 58 58 57 57 56 56 56 56 58 59 58 57 59 59 59 60 58 53 52 52 51 52 53 54 54 55 55 57 58 60 61 62 63 65 67 68 70 71 71 73 74 75 76 76 77 77 77 78 78 79 80 80 80 81 81 81 81 81 81 81 80 80 80 81 81 82 82 82 81 81 80 80 80 82 83 84 83
59 60 61 61 60 60 59 60 60 59 58 57 57 57 56 56 56 57 58 58 56 57 57 58 61 59 54 52 52 51 51 53 54 55 55 56 57 58 59 61 63 64 66 68 69 71 72 73 74 75 76 76 77 77 78 78 79 80 81 82 83 84 84 85 85 85 84 83 82 81 81 82 82 83 83 84 84 82 81 80 79 79 80 80 81 81
62 61 61 62 64 65 65 66 66 63 60 58 57 57 57 57 57 56 57 58 58 59 58 58 59 59 55 53 52 52 53 54 55 55 55 56 57 58 60 62 63 65 67 68 70 72 74 75 76 77 77 78 78 79 81 82 83 84 85 85 86 86 85 85 85 85 84 84 84 83 83 83 84 84 85 86 87 87 86 85 84 84 84 84 84 84
63 61 61 63 67 69 69 69 67 64 61 58 57 57 57 56 56 57 58 58 59 60 58 56 57 57 54 52 52 53 55 55 56 57 58 60 61 63 64 66 67 69 70 71 73 75 76 78 79 80 81 82 83 84 85 86 87 88 88 88 88 88 87 87 87 87 87 87 87 87 88 88 88 89 90 90 91 91 92 91 91 92 92 92 93 93
67 66 66 66 67 69 68 66 64 62 61 60 59 58 57 57 57 58 58 58 59 59 57 56 58 57 54 54 57 58 59 59 61 63 64 65 67 68 69 71 72 73 73 74 76 77 78 80 81 82 83 84 85 86 87 88 89 89 89 90 90 90 90 90 90 90 91 91 92 92 93 94 94 95 95 96 96 96 97 97 97 97 97 98 99 99
68 67 67 66 66 66 66 64 63 63 63 62 61 60 59 58 58 58 60 61 60 59 59 59 59 59 58 58 60 61 61 63 65 66 68 69 70 71 72 73 74 75 75 77 78 79 80 81 82 83 83 84 85 86 87 88 89 90 91 91 92 92 93 93 94 95 96 97 98 98 99 99 99 100 100 100 100 101 101 101 101 101 101 101 101 102
65 66 66 65 65 65 65 64 63 63 63 63 62 61 60 59 59 61 63 62 60 61 64 63 61 62 63 61 61 62 64 65 67 68 69 70 71 72 73 74 75 75 76 77 78 79 80 81 83 83 84 85 86 87 88 89 91 92 93 94 95 95 97 98 99 100 100 101 101 101 102 102 102 103 103 103 103 103 103 103 103 104 104 104 104 104
65 66 65 65 66 65 65 64 63 62 62 62 62 61 60 60 61 63 63 62 61 64 66 65 63 65 66 64 64 65 66 67 69 70 71 71 72 72 73 74 74 75 76 78 79 80 82 83 84 85 86 86 87 88 90 91 92 94 95 96 97 98 99 100 100 101 101 101 100 100 100 100 100 100 100 100 100 100 101 101 101 102 102 103 103 104
65 65 65 66 66 65 64 63 63 62 62 62 62 62 61 61 62 63 63 62 63 66 67 66 66 68 67 66 66 66 67 69 70 71 71 72 72 73 73 74 75 76 78 80 81 82 83 84 85 86 87 88 89 90 91 93 94 95 96 97 97 98 98 98 98 97 96 95 94 94 93 92 92 91 91 92 92 92 93 93 94 95 96 97 98 100
64 65 66 66 66 64 62 62 62 62 62 63 63 62 62 63 63 63 62 63 65 67 67 67 69 70 67 65 66 67 68 69 70 72 72 73 74 74 75 76 77 79 81 82 83 84 85 85 86 88 89 90 91 92 93 94 94 94 94 94 94 94 93 92 91 90 88 87 86 85 84 83 83 83 83 83 84 84 85 86 87 88 89 91 92 94
64 64 65 64 65 64 61 61 62 62 63 65 64 62 60 60 62 62 63 64 65 67 68 69 70 69 67 66 67 68 69 71 72 73 75 76 77 77 77 78 79 81 82 83 84 85 86 87 89 90 91 92 93 93 92 92 91 91 90 90 88 87 86 85 84 83 81 80 79 79 78 78 78 77 77 78 78 79 80 81 82 83 84 86 87 89
63 63 63 62 64 63 60 61 63 63 66 67 63 59 57 59 62 64 64 64 64 65 67 69 70 69 68 69 70 71 72 73 74 75 76 77 78 78 79 80 81 82 83 84 86 87 88 89 90 90 91 91 90 89 88 87 86 85 84 82 81 80 79 78 77 76 75 75 75 74 74 75 75 74 74 75 75 76 77 78 79 80 81 83 84 85
62 62 62 62 64 63 61 61 64 66 69 66 60 57 59 61 62 64 64 63 63 65 67 69 70 71 72 72 73 74 75 75 75 76 77 79 80 80 81 81 82 84 84 85 86 87 88 88 88 87 86 85 84 82 81 80 79 77 76 75 74 73 72 71 71 70 70 70 70 70 71 71 71 72 72 73 74 74 75 76 77 78 79 81 82 83
61 61 62 62 63 64 62 62 66 70 68 63 59 60 62 63 63 64 65 64 64 65 67 70 71 73 73 74 74 75 76 76 76 77 79 81 81 81 82 82 83 84 84 84 84 83 83 82 80 79 78 76 75 73 72 71 70 69 68 68 67 67 66 66 66 66 66 66 66 67 68 68 69 69 70 71 72 73 74 75 76 77 79 80 80 81
60 61 61 62 63 65 64 64 68 70 67 63 61 61 62 62 63 65 66 65 63 64 68 71 72 73 74 75 76 76 77 78 78 79 81 82 82 82 82 82 82 81 80 79 78 76 74 72 71 70 69 67 66 65 64 63 63 63 63 63 63 63 63 63 63 63 63 64 64 65 66 67 68 69 70 71 72 73 74 75 76 78 79 80 80 80
59 60 61 62 63 64 65 66 68 69 68 63 60 59 60 61 62 65 68 66 63 65 69 72 73 74 75 77 78 78 79 80 80 80 82 82 82 82 81 80 78 77 74 72 70 67 65 64 63 62 60 60 59 59 59 59 59 59 59 59 60 60 61 61 62 63 63 64 65 66 67 68 69 70 71 72 73 74 75 76 77 79 80 81 80 80
59 59 60 62 63 63 65 66 68 69 68 62 58 58 60 61 63 66 70 69 65 65 70 73 74 76 77 78 79 80 80 81 80 80 81 82 81 79 77 75 73 70 67 64 61 60 60 59 57 56 55 56 56 56 56 56 56 56 57 57 58 59 61 62 63 64 65 66 67 68 69 70 70 71 72 73 73 74 75 76 77 78 79 80 80 80
59 59 60 62 63 63 64 66 68 69 68 62 59 60 61 63 65 68 72 71 66 67 71 74 75 77 78 79 80 80 81 81 81 80 80 80 78 75 72 68 65 62 60 58 56 56 55 54 53 53 53 54 54 54 54 54 54 55 57 58 60 61 63 64 65 66 66 67 68 69 70 70 70 71 72 72 73 74 75 76 77 78 78 79 79 79
59 60 61 63 63 63 64 67 69 69 66 63 63 63 64 66 68 70 74 72 68 69 73 76 77 78 79 80 80 81 81 80 79 78 77 75 72 68 65 62 59 57 56 55 54 53 52 51 51 52 52 52 52 52 53 54 55 57 59 61 63 64 65 65 66 67 67 67 68 68 69 69 70 70 71 72 72 73 75 76 77 76 76 75 75 75
60 62 63 63 63 64 65 68 70 69 66 65 66 66 66 69 71 73 74 73 72 74 76 77 78 79 79 79 80 79 79 78 76 73 70 67 64 62 59 57 56 54 53 52 52 51 51 50 50 50 50 51 52 53 54 56 58 60 62 63 64 65 65 66 66 66 66 66 67 67 67 68 69 70 71 71 72 73 74 74 74 73 72 72 70 70
60 62 63 63 64 65 66 68 71 71 67 65 67 68 69 72 74 74 75 75 76 77 77 78 78 78 78 78 78 77 75 73 70 67 63 60 58 57 55 53 52 51 50 49 49 49 49 49 49 50 51 52 53 54 56 58 60 61 62 64 64 65 64 64 65 65 65 65 65 65 66 67 68 69 70 70 71 72 72 71 70 70 68 67 65 65
60 62 63 63 63 65 66 69 72 71 67 66 69 71 72 74 74 75 76 77 78 77 77 78 78 77 77 76 74 72 70 66 63 59 57 55 54 52 51 49 48 48 48 47 47 48 48 49 49 50 52 53 55 56 57 59 60 61 62 63 63 63 63 63 63 63 64 64 64 65 66 67 67 68 68 68 69 70 69 68 67 65 63 62 63 62
62 61 61 61 64 66 68 70 72 70 68 69 71 71 72 73 74 75 77 78 78 77 77 77 76 75 74 72 69 67 63 59 56 54 52 51 49 48 47 46 46 46 46 47 47 48 48 50 50 52 53 54 55 57 58 59 60 61 62 63 62 62 61 62 62 63 63 64 64 65 65 65 65 65 66 67 67 67 67 65 61 59 59 61 63 61
62 61 61 63 65 67 69 70 71 70 69 70 71 71 71 71 72 74 75 75 75 75 74 73 72 71 69 67 64 62 59 56 53 51 50 48 46 44 44 44 45 46 46 47 48 49 50 51 52 53 54 55 56 57 59 60 61 61 62 62 61 61 61 61 62 63 64 64 64 64 64 64 63 63 64 65 66 65 63 59 56 56 58 61 62 60
61 61 63 65 66 67 69 69 69 69 68 68 69 69 68 68 69 70 70 70 69 68 67 67 66 64 62 61 59 57 55 53 52 51 49 47 44 43 43 44 45 46 47 48 49 50 51 52 53 54 55 56 57 58 59 60 61 61 61 61 60 60 61 61 62 63 63 63 63 63 62 62 61 61 62 63 63 62 57 54 53 55 58 59 60 59
62 61 65 68 68 69 70 68 67 67 66 65 66 67 66 65 64 64 64 64 63 62 60 59 58 56 55 55 54 54 52 50 50 49 48 46 45 45 45 45 46 47 48 50 51 51 52 53 54 55 56 57 58 59 60 61 61 61 61 60 60 60 61 62 62 62 62 62 61 61 61 60 59 59 60 61 60 56 52 52 54 56 57 59 59 58
63 64 67 69 69 69 69 67 67 67 66 65 66 66 64 61 59 59 59 59 58 56 55 53 52 52 52 52 52 52 50 49 49 48 47 47 47 48 48 48 48 49 50 51 52 53 54 54 55 56 57 58 59 60 61 61 61 61 61 61 61 61 61 62 62 61 60 60 59 59 59 58 58 58 59 58 54 50 48 51 53 55 56 58 59 57
64 66 67 67 68 69 69 67 66 65 65 64 63 61 59 57 56 56 57 57 56 54 53 51 50 51 51 51 51 51 50 49 49 48 48 48 49 49 50 50 50 51 52 53 54 55 55 56 56 57 58 59 61 61 61 61 61 61 61 61 61 61 61 60 60 59 58 57 58 58 57 56 57 58 57 53 48 46 47 50 53 54 55 56 57 56
65 67 66 65 67 69 67 64 62 62 62 61 58 57 57 56 55 55 55 55 54 53 52 52 51 51 51 51 51 51 50 50 49 49 49 49 50 50 51 51 52 53 53 54 55 55 56 57 58 58 60 61 62 62 61 61 61 61 61 61 61 61 60 58 57 56 56 56 57 57 56 55 56 57 54 48 44 43 46 48 51 53 54 54 55 54
65 66 64 64 66 66 63 61 60 59 60 58 56 56 55 54 54 54 54 53 52 52 52 52 52 52 52 53 52 51 50 50 50 50 51 50 50 51 51 52 52 53 54 54 55 55 56 57 58 59 60 61 61 61 61 61 61 61 61 60 60 59 57 56 55 55 55 56 56 56 55 55 55 54 49 44 42 43 43 44 46 49 52 53 53 52
Wind_Direction
280 282 284 287 288 286 286 288 288 287 286 286 287 288 288 288 289 290 290 289 290 290 292 293 294 294 295 296 296 295 295 297 299 298 297 295 293 290 287 286 285 284 285 286 288 291 293 292 291 289 287 284 278 273 269 268 266 265 265 266 267 268 268 267 268 269 269 270 271 271 271 270 269 269 268 267 266 266 266 267 268 267 265 264 263 263
279 281 285 288 287 286 286 286 284 284 284 285 286 286 286 287 289 290 289 289 289 289 291 292 292 293 295 296 296 295 296 298 298 296 295 293 290 286 283 281 281 282 283 286 289 292 293 292 289 288 287 286 281 275 271 269 266 263 262 262 263 263 263 263 263 264 265 266 268 271 272 273 273 272 271 270 269 269 268 268 269 268 267 265 264 263
279 282 286 286 284 284 284 282 281 282 283 284 284 285 287 288 289 289 289 290 290 292 293 293 293 293 294 296 296 296 297 297 295 294 293 291 288 285 281 279 278 279 281 285 289 292 293 292 290 288 285 283 280 276 272 268 264 262 260 259 260 260 260 259 259 260 262 264 266 267 269 270 272 274 274 274 273 272 271 270 270 271 271 270 269 267
280 283 286 284 283 282 281 280 280 281 282 282 282 284 286 288 289 289 290 290 291 292 293 292 292 291 292 295 295 296 297 294 291 290 290 289 289 289 287 284 283 283 283 284 287 289 291 292 291 290 288 283 278 274 272 269 267 265 265 264 264 263 262 261 260 260 262 264 266 267 266 267 268 269 271 273 274 275 275 274 273 273 273 272 272 271
281 284 285 284 284 283 282 281 281 281 281 281 282 284 285 285 286 288 289 290 291 291 291 291 291 292 293 295 297 297 295 292 289 289 289 290 291 292 292 292 290 288 287 286 287 288 289 290 290 291 291 286 280 276 273 270 269 269 269 268 268 268 268 268 268 269 268 267 267 268 268 268 268 268 268 269 271 272 273 273 273 273 273 272 271 270
283 284 283 282 282 284 285 285 283 282 281 281 282 283 283 283 284 286 287 289 290 290 290 290 291 292 294 296 298 297 293 291 291 292 293 293 291 290 292 294 294 292 290 289 289 289 288 289 289 290 290 287 281 276 272 269 269 270 271 271 270 271 271 272 274 276 275 272 271 270 270 269 269 269 269 270 270 271 271 271 271 271 271 270 268 267
284 283 281 280 281 284 288 288 286 285 284 284 283 283 284 285 285 286 286 287 288 288 289 289 290 292 294 295 297 295 292 292 293 295 295 294 292 291 291 292 292 292 291 290 290 288 287 287 288 288 288 286 281 276 272 269 269 270 271 272 273 275 276 276 278 278 277 276 275 273 272 272 271 271 271 270 270 271 271 271 271 270 269 268 265 264
282 281 282 283 283 285 287 286 284 286 287 287 287 286 286 286 286 285 285 286 286 288 288 289 293 295 294 295 296 293 292 292 293 294 294 294 294 295 294 293 292 291 291 290 289 288 286 284 283 283 283 283 281 276 272 271 271 271 271 272 272 274 277 280 282 283 280 278 277 276 275 274 273 273 272 272 272 271 271 271 271 270 270 268 266 264
282 282 284 285 286 287 285 282 282 285 286 286 287 287 286 285 284 284 284 284 285 286 287 290 294 293 291 293 294 293 293 294 294 294 295 296 296 296 295 295 295 294 294 293 290 288 287 283 281 280 280 279 278 275 272 270 270 271 271 272 272 272 275 279 282 284 283 280 278 277 276 275 274 273 273 273 273 272 272 271 270 270 269 268 267 265
283 284 285 286 286 285 283 281 282 283 284 285 285 284 284 283 282 282 282 282 282 283 287 291 291 289 288 289 291 293 296 298 299 302 302 301 299 297 296 296 295 295 293 293 290 285 283 280 277 278 280 278 275 271 268 266 266 267 268 269 270 271 272 275 278 281 283 281 279 278 276 275 274 274 273 273 273 272 271 270 269 268 268 267 266 265
283 284 285 286 285 284 283 283 283 283 283 283 282 281 281 280 280 279 280 280 280 282 287 289 287 287 287 288 290 293 297 299 303 305 305 303 302 300 300 298 296 294 292 291 288 280 276 275 272 273 277 278 274 269 266 263 260 261 262 264 266 267 269 271 274 277 281 281 280 278 277 275 274 273 273 273 272 272 270 269 268 266 265 264 263 263
283 284 285 284 284 284 283 282 282 282 282 281 279 279 278 277 277 277 278 279 280 283 286 285 284 285 285 287 291 292 295 298 300 301 301 300 299 300 300 298 296 294 293 292 287 276 272 274 273 270 272 276 273 267 265 263 260 259 258 259 261 263 265 266 269 274 278 281 280 278 276 275 274 274 274 273 273 271 270 269 267 265 264 262 261 261
283 283 283 283 283 283 282 281 282 281 280 278 277 276 276 275 276 276 277 279 281 282 283 282 283 284 284 287 289 290 292 294 295 298 298 297 296 296 295 294 293 292 292 292 285 273 269 273 275 271 270 274 274 266 262 262 260 260 259 258 259 261 262 263 265 269 274 278 278 277 276 275 275 276 276 275 274 272 271 269 267 266 264 262 261 259
282 282 282 282 281 281 281 281 282 281 279 277 275 274 273 274 275 277 279 280 281 281 281 282 284 285 287 289 290 291 292 293 294 296 296 294 293 292 292 292 292 291 291 288 280 271 269 271 274 272 268 270 273 269 265 264 262 262 261 260 261 261 262 263 264 266 270 273 273 273 274 275 277 277 277 276 275 274 272 270 268 266 265 264 262 261
282 281 281 281 280 280 280 281 280 280 279 277 275 273 273 274 277 279 279 280 281 282 283 283 285 287 289 291 291 292 292 292 292 292 291 290 290 290 290 290 290 289 288 285 279 272 269 270 271 272 270 269 271 272 270 269 268 268 267 265 264 263 263 264 264 265 267 269 270 271 273 274 275 276 276 275 274 274 272 271 269 267 265 264 263 262
282 282 282 282 280 280 279 279 278 278 276 274 273 273 274 276 279 280 280 281 283 283 283 283 285 287 288 290 291 291 289 289 288 287 286 286 286 286 287 287 286 287 286 284 282 276 272 271 271 272 272 272 273 274 275 274 273 273 272 269 267 265 265 265 266 267 268 270 272 274 274 274 273 273 272 272 271 271 270 270 269 268 267 266 265 264
283 283 283 283 281 279 278 278 277 275 274 272 272 273 275 276 278 280 282 282 283 282 282 284 285 287 287 288 290 288 286 285 284 283 282 281 282 282 282 282 282 283 283 282 281 279 277 276 275 275 274 273 274 276 279 279 278 276 274 271 269 267 267 267 268 270 272 274 276 277 277 275 274 272 270 269 269 269 269 269 268 267 267 266 265 265
282 282 281 281 279 278 278 277 275 273 272 272 274 275 276 277 279 281 281 282 282 282 283 285 285 286 287 287 289 287 283 282 281 280 280 280 279 279 279 279 280 280 281 280 279 279 279 278 277 277 276 275 277 279 281 282 281 279 276 273 271 270 270 270 271 273 274 276 277 277 277 277 275 273 271 270 270 271 271 270 269 268 266 264 264 264
278 277 277 277 275 275 277 276 276 275 276 277 278 279 280 281 282 282 282 283 284 283 284 285 285 285 285 286 286 284 280 280 279 279 279 278 278 278 278 279 280 281 281 281 281 280 279 278 277 278 278 278 279 280 281 281 281 280 279 277 275 274 274 274 275 275 275 276 276 276 276 275 275 274 273 272 271 271 271 270 270 269 267 265 264 263
274 272 273 274 274 274 276 276 277 279 280 281 281 282 283 283 284 283 283 284 284 282 283 283 283 284 286 285 283 280 278 278 277 276 276 276 276 277 277 279 279 280 280 280 280 280 279 278 277 277 277 278 278 279 279 280 280 280 280 280 279 278 277 277 277 276 277 277 277 278 277 276 276 275 274 273 271 270 270 269 268 267 267 266 265 264
271 271 272 273 273 274 276 278 280 281 281 281 281 282 282 282 282 281 281 282 280 279 279 280 280 282 285 284 281 279 278 277 276 274 274 274 275 276 277 278 278 278 278 278 278 277 277 276 276 276 276 277 277 278 279 279 279 279 280 280 280 280 279 278 278 277 277 278 279 279 278 277 276 276 276 275 274 273 272 270 268 266 266 266 266 266
270 272 274 274 273 275 278 281 282 282 282 282 281 281 281 280 279 277 278 280 278 275 276 277 277 279 281 281 278 276 275 275 274 273 273 273 274 275 276 277 277 277 277 276 276 276 275 275 275 276 277 277 278 278 278 278 278 279 280 281 281 281 281 281 281 281 281 281 281 281 279 278 278 278 278 277 277 276 275 272 269 267 266 266 266 266
274 277 280 280 279 279 281 283 284 283 283 282 281 282 282 281 280 278 279 281 278 275 275 276 275 277 279 279 276 275 275 274 273 273 274 274 274 274 274 274 274 275 275 275 275 275 276 276 276 277 277 277 277 278 278 278 279 280 281 282 282 283 283 283 283 283 284 284 284 283 282 282 281 281 280 280 279 278 276 273 271 269 267 266 266 266
282 284 285 284 283 281 280 283 284 284 284 283 282 282 281 281 281 279 279 279 277 275 276 275 274 277 279 277 276 277 278 276 276 275 274 274 274 273 273 273 274 274 274 274 275 275 275 276 276 276 277 277 277 278 278 279 279 280 280 281 281 282 282 282 282 282 282 282 282 282 281 281 280 280 279 279 278 277 276 274 273 271 270 269 268 267
285 285 284 284 284 282 280 281 282 283 282 280 279 279 278 278 278 277 276 276 275 275 274 272 273 277 278 277 279 280 278 277 276 275 275 275 275 274 274 275 275 275 275 275 275 275 275 276 276 276 277 277 278 279 279 280 280 280 281 281 281 281 281 281 281 281 281 281 280 280 280 279 279 278 278 277 277 277 276 275 274 272 271 271 270 270
282 282 282 283 283 282 282 281 280 279 278 276 276 276 275 276 276 275 275 273 272 273 273 273 275 277 276 278 280 279 278 277 276 276 276 276 275 276 276 276 276 277 277 277 277 277 277 277 277 277 278 279 280 280 281 281 281 281 281 281 281 281 281 281 281 281 281 281 280 280 280 279 279 278 278 278 277 277 276 276 275 274 273 272 272 271
280 280 280 281 281 281 281 280 278 276 275 275 275 275 275 275 274 274 273 271 271 272 272 274 276 276 275 277 279 278 277 277 276 276 277 277 277 277 277 277 278 278 278 278 278 278 278 279 279 279 279 280 280 281 281 282 282 282 283 283 283 283 283 283 282 282 282 282 281 281 281 280 280 279 279 278 278 277 277 276 276 275 275 274 274 273
278 278 278 278 278 278 278 277 276 275 274 274 274 274 274 274 274 273 272 273 274 274 274 276 278 277 278 278 278 278 279 279 278 279 279 279 279 279 279 279 280 280 280 280 280 280 280 280 281 281 281 282 282 282 283 283 283 284 284 284 284 284 284 283 283 283 283 283 283 282 282 281 281 280 280 279 278 278 277 276 276 275 275 275 274 274
275 276 276 275 275 275 275 275 274 273 272 272 273 273 273 274 273 272 273 275 277 278 279 280 279 278 280 281 280 280 280 280 280 280 280 281 280 280 280 280 280 281 280 280 281 281 281 281 282 282 282 283 283 283 283 283 283 283 283 284 284 284 284 284 284 284 283 283 283 283 282 282 281 281 280 280 279 278 277 277 276 276 275 275 275 274
273 274 273 272 273 273 273 273 273 272 271 271 271 272 273 273 272 272 274 277 278 279 280 281 280 279 281 282 281 280 280 280 281 281 281 281 281 281 281 281 281 281 281 281 281 281 282 282 282 283 283 283 283 283 283 283 283 283 284 284 285 285 285 285 285 285 284 284 284 283 283 282 281 281 280 280 279 279 278 278 277 276 276 276 275 275
272 272 271 271 271 271 272 272 271 271 271 270 270 271 274 274 274 275 276 277 277 278 280 281 281 282 283 282 281 281 281 281 281 282 282 281 281 281 281 281 282 282 282 282 282 283 283 283 283 284 284 284 284 284 284 284 284 285 285 285 285 285 285 285 285 285 285 284 284 283 283 282 282 281 281 280 280 280 279 279 278 278 277 277 276 276
271 271 271 271 271 270 271 271 270 271 271 269 270 274 276 277 277 277 276 276 277 279 281 281 282 283 284 283 282 282 282 281 281 282 282 282 282 282 282 283 283 282 283 283 284 284 284 284 285 285 285 285 285 285 285 285 285 285 285 285 285 285 285 285 285 284 284 284 284 284 284 283 283 282 282 282 281 281 281 281 280 280 279 278 278 277
271 271 271 271 271 271 270 270 271 271 270 270 275 279 278 277 276 276 276 278 280 281 281 281 282 283 283 283 283 283 282 282 283 283 284 284 284 284 284 284 284 284 285 285 285 285 286 286 285 285 285 285 286 286 286 286 286 285 285 285 285 285 285 286 286 286 286 286 286 286 286 285 285 285 284 284 284 283 283 282 282 281 281 280 280 279
270 270 270 270 271 272 271 271 272 271 270 274 279 279 276 276 276 278 279 279 279 280 281 283 284 284 284 284 284 284 284 285 285 286 286 286 286 286 286 286 287 287 287 287 287 287 287 287 286 286 286 286 286 286 286 286 286 286 286 286 286 286 287 287 287 287 287 287 287 287 287 287 287 286 286 286 285 285 285 284 284 283 283 282 282 281
270 270 270 271 272 273 272 272 272 272 274 278 278 276 277 278 279 279 279 278 279 281 282 284 284 285 286 286 286 286 287 287 287 287 287 286 286 287 287 288 288 288 288 288 288 288 288 287 287 287 287 287 287 287 287 287 288 288 288 288 288 288 288 288 288 288 288 288 288 288 288 288 288 288 287 287 287 287 286 286 286 286 285 284 284 284
270 271 271 272 273 274 274 274 275 276 278 278 278 279 281 281 281 281 280 280 281 283 283 284 284 285 286 286 287 287 288 288 288 288 288 288 288 288 288 289 289 289 289 289 289 289 288 288 288 288 288 288 289 289 288 289 289 289 289 289 289 289 289 289 289 289 290 290 290 289 289 289 289 288 288 288 287 288 287 287 287 287 287 286 286 287
271 272 273 274 275 276 277 277 277 278 279 280 282 283 282 282 283 283 282 282 283 284 285 285 286 286 286 287 287 288 288 288 289 289 290 290 290 290 290 290 290 290 290 290 289 288 287 287 288 288 288 288 288 288 288 289 289 289 289 289 290 290 290 291 291 291 291 291 290 290 290 289 289 289 288 288 288 288 288 288 288 288 288 288 289 289
272 273 274 275 275 277 278 279 279 279 280 283 284 283 283 283 283 283 283 283 285 287 287 286 287 287 288 288 289 289 289 290 290 291 291 290 290 291 291 291 291 291 290 289 288 287 287 287 288 288 288 287 287 287 288 288 288 288 289 289 290 290 290 291 291 291 291 290 290 290 289 289 289 289 289 289 289 289 289 289 289 289 289 290 290 290
273 274 274 274 275 277 279 280 280 280 283 285 285 283 283 283 283 283 283 285 288 289 287 288 289 289 290 290 290 291 291 291 291 291 290 290 291 291 292 292 291 291 290 288 287 286 286 287 287 286 286 286 286 286 286 287 287 288 288 289 289 289 290 290 290 290 290 290 290 290 290 290 290 290 290 290 290 290 291 290 291 291 292 292 292 291
273 274 274 275 277 278 279 280 280 282 284 286 285 285 285 284 284 285 286 289 291 290 289 290 291 291 291 291 291 291 291 291 291 291 290 291 292 292 292 292 290 289 289 287 286 286 285 284 284 283 283 283 284 284 285 286 287 288 288 289 289 290 290 290 290 290 290 290 290 290 290 290 290 290 291 291 292 292 292 293 294 294 295 295 294 294
274 275 276 277 278 279 280 281 281 282 284 286 287 287 286 286 286 287 289 292 292 291 291 291 291 291 291 291 290 290 290 290 290 290 290 291 291 291 291 291 290 289 287 286 285 284 283 283 282 282 281 281 282 283 285 286 287 288 289 290 290 291 291 291 291 291 290 290 290 290 290 290 291 292 293 293 294 294 295 296 297 298 297 297 297 297
274 275 276 278 280 281 281 282 282 283 285 287 287 287 287 288 289 290 292 292 292 292 292 291 291 291 290 290 289 289 289 290 290 291 291 291 291 291 291 290 289 288 286 285 284 283 282 282 281 281 282 282 283 285 286 288 289 290 291 291 291 292 292 292 292 291 291 290 290 291 291 292 293 294 295 296 296 297 298 299 299 299 299 300 300 300
274 275 277 280 282 282 282 282 282 284 287 287 287 288 289 290 291 292 292 292 292 292 291 290 290 290 289 289 289 289 290 290 291 291 291 291 291 292 291 291 290 288 287 286 284 283 283 283 283 283 284 285 286 288 289 290 291 292 293 293 293 293 293 293 292 292 291 291 292 292 293 294 295 296 297 298 298 299 300 300 300 301 302 303 303 302
275 277 279 281 281 281 282 283 284 285 287 288 289 290 291 291 292 292 292 291 291 291 290 290 289 289 289 289 289 289 290 291 291 291 291 291 292 292 291 290 289 287 286 285 284 284 284 283 284 285 286 287 288 290 291 292 293 294 294 294 293 293 293 293 293 292 292 292 293 294 294 295 297 298 299 299 299 300 301 301 301 303 304 305 305 304
277 279 280 280 281 282 282 283 284 286 289 290 291 291 292 292 293 292 291 290 290 290 290 290 290 290 290 290 291 291 292 293 293 293 293 293 293 291 289 288 287 286 285 285 284 285 285 285 286 286 287 289 290 291 293 294 294 295 294 294 294 294 294 293 293 293 293 293 294 295 296 297 298 299 299 299 299 300 301 301 302 304 305 306 307 307
279 281 282 281 282 282 282 283 286 289 291 291 292 292 292 292 290 289 288 288 288 289 289 289 289 290 290 290 291 292 293 294 294 294 295 295 294 291 290 288 287 286 285 285 285 286 286 287 287 288 290 291 292 293 295 295 295 295 294 294 294 294 294 293 293 293 294 294 295 296 296 297 299 299 299 299 300 301 301 301 303 305 307 309 310 310
281 283 283 283 283 283 284 286 289 289 289 289 290 290 288 287 286 286 286 286 286 286 287 287 288 289 290 290 290 291 291 292 293 293 294 294 294 292 291 289 288 287 287 287 287 288 288 289 290 291 292 293 294 295 296 296 296 295 294 294 294 294 294 294 293 294 294 295 296 296 297 298 299 299 299 299 300 300 300 302 304 306 308 311 312 312
282 282 283 284 285 285 286 288 288 287 286 287 288 287 285 284 285 285 284 284 284 285 286 286 287 288 288 288 288 289 290 290 291 291 292 293 293 293 292 291 290 290 289 289 290 290 291 291 292 293 294 294 295 296 296 296 296 295 295 295 295 295 294 294 294 295 295 295 296 297 298 299 300 299 299 299 299 298 300 302 304 307 309 311 313 313
283 283 284 286 285 285 286 288 288 286 286 286 285 284 282 282 282 281 281 282 284 285 286 286 287 286 285 286 287 288 289 290 291 291 292 292 293 293 292 292 291 291 291 291 291 291 292 293 294 295 295 296 296 297 297 297 296 295 296 295 295 295 294 294 294 295 295 296 297 297 299 300 300 300 299 298 297 298 301 303 306 308 310 311 313 314
284 285 286 286 285 285 287 288 287 286 285 284 281 280 279 279 278 278 280 282 284 286 287 287 286 285 285 286 287 288 290 291 291 292 293 293 293 292 292 291 291 291 291 291 292 293 294 294 295 296 296 297 297 298 298 297 296 295 295 295 294 294 293 294 294 294 295 296 297 298 300 300 300 300 299 296 295 298 301 305 307 309 311 311 312 316
285 286 286 286 286 287 287 287 285 284 283 281 280 278 277 276 276 278 280 282 284 285 285 285 286 287 287 288 288 289 290 291 291 292 293 293 292 292 291 291 291 291 291 292 293 293 294 295 296 296 297 297 297 297 297 296 295 295 294 293 293 293 293 293 293 294 295 296 297 299 300 301 300 299 296 294 295 299 303 306 309 310 311 312 313 315
Height
5815 5815 5814 5816 5817 5815 5814 5814 5812 5811 5809 5808 5807 5807 5806 5806 5807 5809 5809 5808 5806 5804 5804 5804 5803 5802 5802 5803 5803 5803 5802 5802 5802 5802 5802 5803 5802 5801 5799 5798 5797 5796 5796 5795 5794 5794 5793 5792 5791 5790 5790 5789 5789 5788 5787 5787 5787 5787 5787 5787 5787 5787 5787 5787 5787 5788 5788 5788 5788 5787 5787 5787 5786 5785 5785 5784 5784 5784 5784 5784 5783 5783 5783 5782 5782 5781
5811 5810 5812 5813 5811 5809 5810 5809 5807 5806 5805 5804 5803 5802 5802 5802 5803 5804 5803 5803 5801 5800 5801 5801 5799 5798 5797 5798 5798 5798 5799 5798 5797 5797 5798 5798 5798 5797 5796 5795 5794 5793 5793 5792 5792 5791 5790 5789 5788 5787 5786 5785 5785 5784 5783 5783 5782 5782 5782 5782 5783 5783 5782 5782 5783 5783 5783 5784 5784 5784 5783 5783 5782 5782 5781 5780 5780 5779 5779 5779 5778 5778 5778 5777 5777 5776
5805 5806 5809 5809 5806 5805 5804 5803 5802 5802 5801 5800 5798 5797 5797 5797 5797 5797 5797 5796 5795 5795 5795 5795 5794 5793 5793 5794 5794 5794 5796 5794 5792 5792 5793 5793 5793 5793 5792 5792 5791 5790 5789 5788 5788 5787 5786 5786 5784 5783 5782 5781 5780 5780 5779 5779 5778 5778 5777 5777 5777 5778 5778 5778 5778 5778 5779 5779 5779 5779 5779 5779 5779 5778 5778 5777 5776 5775 5774 5774 5774 5773 5773 5773 5772 5772
5800 5803 5805 5803 5801 5800 5799 5798 5798 5798 5797 5795 5794 5794 5793 5793 5791 5791 5791 5791 5790 5790 5790 5789 5788 5789 5790 5791 5790 5790 5792 5790 5788 5788 5788 5789 5789 5788 5788 5788 5787 5787 5786 5785 5784 5783 5782 5782 5781 5780 5779 5778 5776 5775 5775 5775 5774 5774 5773 5773 5773 5773 5773 5773 5773 5773 5773 5774 5774 5774 5774 5774 5774 5774 5773 5773 5772 5771 5770 5770 5769 5769 5768 5768 5768 5767
5796 5799 5799 5797 5795 5794 5794 5794 5794 5793 5792 5791 5790 5790 5790 5789 5787 5786 5786 5786 5786 5786 5785 5783 5782 5783 5786 5788 5787 5786 5786 5785 5783 5784 5784 5785 5784 5783 5782 5782 5783 5782 5781 5780 5779 5778 5778 5777 5777 5776 5775 5774 5773 5772 5771 5770 5770 5769 5769 5769 5768 5768 5768 5767 5767 5767 5767 5767 5768 5768 5768 5768 5768 5767 5767 5767 5767 5767 5766 5765 5764 5764 5763 5763 5763 5762
5793 5795 5794 5792 5790 5788 5788 5789 5789 5788 5787 5787 5787 5786 5786 5785 5784 5783 5783 5782 5781 5781 5780 5779 5776 5777 5780 5783 5784 5781 5780 5779 5778 5778 5779 5780 5780 5779 5777 5776 5776 5776 5776 5775 5774 5773 5773 5772 5772 5771 5771 5770 5769 5768 5767 5766 5766 5765 5764 5764 5763 5763 5762 5762 5762 5761 5761 5761 5761 5761 5761 5761 5761 5760 5760 5760 5760 5760 5760 5759 5759 5759 5759 5758 5757 5757
5789 5789 5788 5787 5786 5784 5784 5784 5783 5782 5782 5782 5782 5782 5781 5781 5780 5779 5779 5778 5777 5776 5776 5774 5772 5773 5775 5778 5779 5776 5774 5774 5774 5773 5774 5775 5775 5774 5773 5772 5771 5770 5769 5769 5769 5768 5767 5767 5766 5766 5765 5765 5764 5763 5763 5762 5761 5760 5759 5758 5757 5756 5755 5755 5755 5755 5755 5754 5754 5754 5753 5753 5753 5753 5753 5753 5753 5753 5752 5752 5752 5752 5752 5752 5752 5751
5783 5782 5782 5782 5781 5781 5781 5779 5778 5777 5777 5777 5777 5776 5776 5776 5775 5774 5774 5773 5772 5772 5770 5770 5769 5768 5769 5770 5772 5771 5769 5770 5770 5769 5768 5769 5769 5768 5766 5765 5764 5764 5763 5762 5762 5761 5760 5760 5760 5760 5759 5759 5758 5758 5757 5756 5755 5754 5753 5752 5751 5750 5748 5748 5747 5747 5748 5747 5747 5746 5746 5746 5745 5745 5745 5745 5745 5744 5744 5744 5744 5744 5744 5744 5744 5744
5777 5777 5777 5777 5777 5777 5776 5774 5773 5773 5773 5773 5772 5771 5770 5770 5769 5769 5768 5767 5767 5767 5766 5767 5766 5764 5764 5765 5764 5763 5762 5764 5765 5763 5763 5763 5763 5762 5760 5757 5756 5756 5755 5754 5754 5754 5752 5751 5752 5752 5752 5752 5752 5751 5750 5750 5749 5748 5747 5746 5745 5743 5742 5741 5740 5739 5739 5740 5739 5739 5738 5738 5737 5737 5737 5736 5736 5736 5736 5735 5735 5735 5735 5735 5736 5735
5771 5771 5771 5771 5771 5771 5771 5769 5769 5769 5768 5768 5768 5766 5765 5764 5763 5763 5762 5762 5761 5761 5763 5764 5762 5758 5759 5760 5759 5757 5755 5755 5756 5754 5753 5753 5753 5753 5753 5751 5749 5748 5748 5747 5746 5746 5745 5744 5743 5743 5744 5745 5745 5744 5743 5742 5741 5740 5739 5738 5737 5736 5735 5734 5732 5731 5731 5731 5731 5730 5730 5729 5729 5729 5728 5728 5728 5727 5727 5727 5726 5726 5726 5726 5726 5726
5766 5766 5766 5767 5766 5765 5765 5764 5764 5764 5764 5764 5762 5761 5760 5759 5758 5757 5756 5756 5754 5756 5759 5759 5755 5753 5753 5755 5755 5753 5751 5750 5749 5747 5744 5743 5741 5741 5742 5742 5741 5740 5741 5740 5740 5739 5738 5738 5736 5735 5735 5736 5736 5736 5735 5734 5733 5732 5732 5731 5730 5729 5727 5726 5725 5724 5723 5722 5722 5722 5721 5721 5720 5720 5720 5719 5719 5719 5718 5718 5717 5717 5717 5717 5717 5717
5761 5761 5762 5762 5761 5761 5761 5760 5760 5759 5759 5759 5757 5756 5756 5753 5752 5751 5750 5750 5748 5751 5754 5752 5749 5747 5747 5750 5751 5749 5748 5746 5745 5743 5740 5737 5735 5734 5733 5733 5733 5733 5732 5733 5733 5732 5731 5731 5730 5728 5726 5727 5728 5728 5727 5726 5725 5724 5724 5723 5722 5721 5720 5719 5717 5716 5715 5714 5713 5713 5713 5712 5712 5711 5710 5710 5709 5709 5709 5708 5708 5708 5707 5707 5707 5707
5757 5757 5756 5756 5757 5757 5756 5755 5755 5754 5753 5753 5752 5752 5750 5748 5746 5745 5745 5744 5743 5746 5747 5746 5744 5741 5742 5746 5746 5745 5744 5742 5739 5737 5735 5733 5730 5728 5727 5727 5727 5726 5726 5725 5725 5725 5724 5723 5723 5722 5719 5718 5719 5719 5719 5718 5718 5717 5716 5715 5714 5713 5712 5711 5710 5709 5708 5707 5706 5705 5704 5703 5703 5702 5701 5700 5700 5699 5699 5698 5698 5698 5697 5697 5697 5697
5752 5752 5752 5752 5752 5752 5750 5750 5749 5748 5748 5747 5747 5746 5744 5743 5741 5739 5740 5739 5737 5739 5740 5740 5738 5734 5736 5740 5739 5739 5738 5736 5733 5731 5729 5727 5724 5722 5721 5721 5720 5720 5719 5719 5718 5717 5716 5715 5714 5714 5712 5710 5710 5711 5711 5710 5710 5709 5709 5708 5706 5705 5703 5702 5701 5701 5700 5700 5699 5698 5697 5696 5694 5693 5692 5691 5690 5689 5689 5688 5688 5687 5687 5686 5686 5686
5745 5747 5748 5747 5746 5746 5745 5744 5743 5742 5742 5740 5740 5739 5738 5738 5736 5734 5734 5732 5730 5731 5733 5734 5732 5728 5731 5733 5732 5731 5731 5729 5727 5725 5722 5720 5718 5716 5714 5714 5713 5713 5712 5711 5711 5710 5708 5706 5705 5704 5703 5702 5701 5702 5703 5703 5702 5701 5700 5699 5698 5696 5694 5693 5691 5691 5691 5691 5691 5690 5689 5688 5686 5685 5683 5681 5680 5679 5678 5678 5677 5677 5676 5676 5675 5675
5738 5740 5742 5741 5740 5741 5740 5737 5736 5736 5735 5734 5733 5732 5732 5733 5731 5727 5726 5726 5725 5723 5725 5729 5727 5723 5724 5725 5725 5723 5722 5721 5719 5718 5716 5714 5712 5711 5708 5707 5706 5705 5705 5703 5702 5701 5700 5698 5696 5695 5694 5693 5692 5692 5692 5693 5693 5693 5691 5690 5688 5687 5685 5684 5683 5682 5681 5680 5680 5679 5679 5678 5677 5676 5674 5673 5671 5670 5669 5668 5667 5666 5666 5665 5664 5664
5731 5732 5735 5735 5733 5734 5734 5731 5729 5729 5728 5727 5726 5726 5727 5726 5724 5721 5718 5720 5718 5713 5716 5722 5721 5718 5717 5717 5718 5716 5714 5714 5712 5710 5709 5707 5706 5705 5702 5701 5699 5698 5697 5696 5695 5693 5691 5690 5688 5687 5686 5685 5683 5681 5681 5681 5682 5682 5682 5680 5679 5678 5676 5675 5674 5672 5671 5670 5668 5667 5666 5666 5666 5665 5664 5664 5662 5661 5660 5659 5658 5657 5656 5655 5654 5653
5723 5724 5727 5728 5726 5725 5727 5725 5722 5721 5722 5721 5720 5720 5719 5717 5717 5716 5712 5711 5711 5705 5705 5711 5713 5713 5711 5708 5709 5709 5706 5706 5705 5702 5701 5700 5698 5697 5695 5693 5691 5690 5689 5688 5687 5685 5683 5682 5680 5679 5678 5676 5674 5672 5670 5670 5670 5670 5670 5670 5669 5668 5667 5665 5664 5663 5661 5660 5658 5657 5656 5654 5654 5654 5653 5653 5652 5651 5651 5649 5649 5648 5646 5645 5644 5643
5716 5716 5719 5722 5720 5718 5720 5719 5715 5713 5714 5714 5712 5711 5710 5708 5708 5708 5704 5702 5701 5696 5695 5698 5702 5705 5705 5702 5701 5700 5698 5698 5697 5695 5693 5691 5690 5688 5687 5685 5684 5682 5680 5679 5677 5676 5675 5674 5672 5671 5669 5667 5666 5663 5662 5660 5658 5658 5658 5659 5659 5658 5657 5656 5654 5653 5651 5650 5649 5647 5646 5645 5643 5643 5642 5642 5641 5641 5640 5639 5638 5637 5636 5635 5634 5633
5710 5709 5710 5714 5714 5711 5712 5713 5710 5707 5705 5705 5703 5702 5701 5700 5699 5699 5697 5695 5692 5688 5686 5687 5688 5694 5698 5697 5694 5691 5690 5691 5690 5688 5686 5684 5682 5681 5680 5678 5676 5675 5673 5671 5669 5668 5666 5665 5663 5661 5659 5658 5656 5654 5653 5651 5649 5648 5647 5647 5647 5647 5646 5645 5644 5643 5641 5640 5639 5637 5636 5634 5633 5631 5631 5630 5630 5629 5629 5628 5627 5626 5625 5624 5623 5622
5703 5700 5701 5706 5707 5705 5705 5706 5704 5700 5697 5696 5695 5695 5694 5693 5691 5690 5689 5690 5685 5680 5679 5677 5675 5681 5689 5689 5686 5683 5682 5682 5681 5680 5679 5677 5676 5674 5673 5671 5669 5667 5665 5663 5661 5659 5657 5655 5653 5651 5650 5648 5647 5645 5644 5642 5640 5639 5638 5637 5636 5635 5635 5634 5633 5632 5631 5629 5628 5627 5625 5623 5622 5620 5619 5618 5617 5617 5616 5616 5615 5614 5613 5612 5611 5610
5696 5693 5692 5696 5699 5700 5700 5698 5695 5691 5689 5688 5687 5687 5687 5686 5684 5681 5679 5682 5681 5674 5672 5670 5666 5669 5678 5680 5677 5676 5675 5674 5672 5671 5671 5671 5669 5667 5665 5663 5661 5659 5656 5654 5651 5649 5647 5646 5644 5642 5641 5639 5638 5636 5634 5632 5631 5629 5628 5626 5625 5624 5622 5621 5620 5619 5618 5617 5616 5615 5613 5612 5610 5609 5607 5606 5605 5604 5603 5602 5602 5601 5601 5600 5599 5598
5689 5685 5683 5685 5689 5693 5692 5689 5685 5681 5681 5680 5678 5679 5679 5678 5677 5673 5670 5672 5672 5668 5667 5665 5658 5659 5668 5670 5668 5668 5668 5665 5664 5663 5663 5663 5662 5660 5657 5655 5652 5650 5647 5645 5642 5640 5638 5636 5635 5633 5632 5630 5628 5626 5624 5623 5621 5619 5618 5616 5614 5612 5610 5609 5608 5607 5605 5604 5603 5602 5601 5599 5598 5596 5595 5594 5593 5592 5591 5590 5589 5588 5588 5587 5586 5586
5680 5676 5675 5675 5678 5683 5685 5682 5677 5673 5672 5672 5670 5671 5671 5670 5669 5667 5663 5661 5660 5659 5661 5657 5651 5653 5659 5659 5659 5660 5659 5656 5655 5655 5655 5654 5653 5651 5648 5646 5644 5641 5639 5636 5634 5631 5629 5627 5625 5623 5621 5620 5618 5616 5614 5613 5611 5610 5608 5607 5604 5602 5600 5598 5596 5595 5594 5592 5591 5590 5589 5587 5586 5584 5583 5581 5580 5579 5578 5578 5577 5576 5575 5575 5574 5573
5672 5668 5667 5667 5667 5671 5675 5676 5671 5666 5665 5664 5664 5664 5663 5663 5662 5658 5656 5654 5648 5648 5652 5648 5645 5649 5651 5650 5652 5652 5649 5647 5646 5645 5645 5645 5643 5641 5639 5637 5634 5632 5630 5628 5625 5622 5620 5617 5615 5613 5611 5609 5607 5605 5603 5601 5600 5598 5597 5595 5593 5591 5589 5587 5585 5584 5582 5581 5579 5577 5576 5574 5573 5571 5569 5567 5566 5564 5563 5563 5563 5562 5561 5560 5560 5559
5664 5661 5661 5660 5658 5659 5664 5667 5664 5659 5656 5655 5657 5658 5657 5657 5655 5651 5649 5645 5639 5639 5641 5640 5639 5643 5644 5644 5644 5642 5639 5638 5637 5636 5635 5635 5633 5632 5629 5627 5624 5622 5621 5618 5615 5613 5610 5608 5605 5603 5601 5599 5597 5594 5592 5590 5587 5585 5583 5582 5580 5579 5577 5575 5573 5571 5569 5568 5566 5564 5562 5560 5558 5556 5555 5553 5551 5550 5548 5547 5546 5546 5545 5544 5543 5543
5655 5654 5654 5653 5650 5650 5654 5656 5654 5650 5648 5648 5649 5651 5651 5651 5649 5645 5640 5636 5634 5632 5631 5634 5635 5633 5636 5640 5637 5633 5630 5628 5627 5627 5625 5625 5624 5622 5620 5617 5615 5613 5611 5608 5605 5602 5600 5597 5595 5593 5592 5590 5587 5584 5581 5579 5576 5573 5571 5569 5567 5566 5564 5562 5560 5557 5555 5553 5551 5549 5547 5545 5543 5541 5539 5538 5536 5534 5533 5531 5530 5530 5528 5527 5526 5526
5646 5645 5647 5645 5642 5643 5644 5644 5643 5641 5639 5640 5641 5642 5645 5644 5641 5637 5631 5628 5629 5623 5620 5628 5631 5622 5624 5631 5630 5625 5621 5617 5617 5616 5615 5615 5614 5612 5610 5607 5605 5604 5601 5598 5595 5592 5589 5587 5584 5582 5581 5579 5576 5574 5570 5568 5564 5561 5559 5556 5553 5552 5549 5547 5545 5542 5540 5538 5536 5533 5531 5529 5527 5525 5523 5521 5520 5518 5517 5515 5514 5513 5512 5511 5510 5509
5637 5637 5639 5636 5633 5635 5636 5634 5633 5632 5630 5631 5633 5634 5636 5637 5634 5628 5623 5623 5623 5615 5611 5619 5620 5613 5614 5621 5620 5616 5612 5608 5606 5605 5605 5605 5604 5602 5600 5598 5595 5593 5591 5588 5585 5582 5579 5577 5575 5572 5570 5568 5565 5563 5560 5557 5553 5550 5546 5543 5540 5538 5535 5532 5530 5528 5525 5523 5520 5518 5516 5514 5512 5510 5508 5505 5504 5502 5501 5500 5499 5497 5496 5494 5493 5492
5629 5629 5629 5626 5624 5627 5628 5625 5623 5622 5621 5623 5625 5626 5627 5628 5625 5620 5619 5620 5616 5607 5605 5608 5605 5603 5609 5611 5607 5605 5604 5601 5598 5596 5595 5594 5593 5592 5590 5588 5586 5584 5580 5578 5575 5572 5569 5567 5564 5562 5559 5556 5554 5551 5548 5545 5542 5538 5534 5531 5528 5525 5521 5518 5516 5514 5511 5508 5506 5503 5501 5499 5498 5496 5494 5491 5489 5487 5486 5484 5483 5482 5481 5479 5478 5477
5621 5620 5619 5617 5616 5618 5621 5617 5612 5612 5612 5613 5616 5619 5620 5618 5616 5614 5614 5613 5607 5600 5600 5599 5592 5593 5601 5600 5595 5595 5594 5592 5590 5587 5586 5584 5582 5582 5580 5579 5577 5573 5569 5566 5563 5561 5558 5556 5553 5550 5547 5544 5541 5538 5536 5533 5529 5526 5523 5520 5517 5513 5509 5506 5504 5501 5498 5495 5492 5490 5488 5486 5485 5484 5482 5479 5476 5474 5472 5470 5469 5468 5466 5465 5464 5462
5614 5612 5610 5609 5605 5609 5615 5608 5601 5603 5602 5601 5607 5615 5615 5611 5607 5605 5604 5601 5599 5596 5593 5589 5584 5585 5588 5587 5585 5586 5584 5582 5581 5579 5576 5573 5572 5571 5570 5568 5566 5562 5558 5555 5552 5549 5547 5544 5542 5538 5534 5531 5528 5525 5523 5520 5517 5514 5511 5508 5505 5501 5498 5495 5493 5490 5487 5484 5481 5479 5476 5474 5473 5472 5470 5467 5465 5463 5461 5459 5457 5455 5453 5451 5449 5448
5605 5603 5603 5600 5593 5599 5606 5599 5593 5594 5590 5591 5603 5610 5607 5602 5597 5595 5594 5594 5594 5589 5583 5579 5577 5577 5577 5576 5576 5575 5573 5572 5571 5569 5566 5562 5559 5559 5559 5556 5553 5549 5546 5543 5540 5537 5534 5531 5529 5525 5522 5519 5516 5513 5510 5507 5504 5501 5498 5496 5492 5489 5487 5484 5482 5479 5477 5474 5471 5468 5466 5463 5462 5460 5458 5455 5453 5451 5449 5447 5445 5442 5440 5437 5436 5434
5597 5595 5594 5591 5585 5588 5594 5591 5583 5580 5579 5588 5600 5600 5594 5592 5589 5586 5585 5587 5586 5581 5575 5570 5568 5567 5566 5566 5565 5563 5562 5562 5560 5558 5556 5551 5547 5547 5546 5543 5540 5536 5534 5531 5528 5525 5521 5518 5515 5512 5509 5506 5503 5501 5498 5495 5493 5489 5487 5484 5481 5479 5476 5474 5472 5469 5467 5464 5461 5458 5456 5453 5451 5449 5447 5444 5441 5439 5437 5434 5432 5430 5426 5423 5422 5421
5589 5587 5584 5582 5578 5577 5582 5582 5572 5567 5575 5586 5591 5588 5584 5583 5582 5578 5575 5577 5577 5573 5569 5563 5558 5557 5556 5555 5554 5552 5551 5551 5550 5548 5544 5538 5537 5536 5535 5532 5528 5524 5522 5519 5516 5513 5509 5505 5502 5500 5497 5495 5492 5489 5487 5484 5482 5479 5477 5474 5471 5469 5467 5464 5462 5460 5457 5455 5452 5449 5446 5444 5441 5439 5436 5433 5430 5428 5425 5422 5419 5417 5413 5410 5409 5407
5580 5578 5575 5574 5570 5567 5571 5571 5563 5560 5569 5577 5579 5579 5576 5573 5571 5566 5562 5566 5569 5566 5560 5554 5551 5550 5547 5544 5543 5542 5540 5540 5539 5537 5531 5526 5525 5525 5523 5521 5518 5514 5511 5507 5504 5501 5497 5494 5492 5489 5487 5484 5481 5479 5477 5475 5472 5470 5467 5465 5462 5460 5457 5455 5453 5451 5449 5447 5444 5440 5437 5434 5432 5429 5426 5423 5420 5418 5415 5411 5408 5405 5400 5397 5397 5395
5571 5569 5567 5565 5562 5560 5559 5559 5556 5553 5558 5567 5573 5571 5565 5563 5561 5555 5549 5554 5560 5559 5551 5545 5541 5540 5538 5535 5533 5532 5530 5528 5527 5525 5519 5513 5513 5513 5511 5509 5507 5503 5500 5497 5493 5491 5487 5485 5483 5481 5479 5476 5473 5470 5468 5466 5464 5462 5459 5456 5454 5451 5449 5447 5445 5442 5440 5437 5434 5431 5428 5425 5422 5419 5416 5413 5410 5407 5404 5401 5397 5394 5389 5386 5385 5383
5563 5561 5560 5556 5553 5554 5551 5549 5548 5544 5547 5559 5565 5561 5555 5554 5552 5544 5537 5541 5551 5551 5542 5535 5532 5529 5526 5525 5524 5522 5519 5517 5517 5516 5508 5501 5501 5501 5499 5498 5495 5492 5490 5487 5484 5481 5479 5477 5476 5473 5471 5468 5465 5463 5461 5458 5456 5454 5451 5449 5446 5444 5441 5439 5437 5434 5432 5428 5425 5421 5418 5415 5412 5409 5406 5403 5400 5397 5394 5390 5386 5383 5379 5375 5373 5371
5555 5554 5553 5547 5546 5548 5545 5540 5538 5535 5539 5549 5552 5549 5547 5544 5540 5534 5526 5531 5543 5542 5530 5525 5523 5518 5516 5514 5512 5510 5508 5505 5506 5505 5497 5491 5491 5490 5488 5487 5485 5481 5480 5478 5475 5473 5471 5469 5468 5465 5462 5460 5457 5455 5453 5451 5449 5446 5444 5441 5439 5436 5434 5431 5429 5426 5423 5420 5416 5412 5409 5405 5402 5398 5395 5393 5390 5386 5383 5379 5375 5372 5368 5364 5360 5357
5547 5545 5543 5540 5540 5542 5538 5532 5529 5529 5533 5537 5537 5537 5536 5532 5528 5524 5517 5520 5529 5527 5520 5517 5513 5508 5506 5503 5500 5499 5497 5495 5494 5492 5487 5483 5482 5480 5478 5477 5475 5473 5471 5469 5467 5465 5464 5462 5460 5457 5455 5452 5450 5448 5446 5444 5442 5439 5436 5434 5431 5428 5426 5423 5421 5417 5414 5411 5407 5403 5400 5396 5392 5389 5385 5382 5379 5376 5372 5368 5364 5361 5357 5353 5349 5345
5540 5536 5534 5533 5534 5534 5530 5524 5520 5522 5527 5529 5524 5523 5523 5519 5515 5513 5511 5512 5514 5512 5509 5507 5502 5499 5497 5492 5489 5488 5487 5485 5483 5481 5478 5475 5473 5471 5470 5468 5466 5465 5464 5462 5459 5458 5456 5454 5452 5450 5448 5445 5443 5441 5439 5437 5434 5431 5429 5426 5422 5420 5417 5415 5412 5409 5405 5402 5398 5394 5391 5387 5383 5380 5376 5372 5368 5365 5362 5357 5353 5350 5346 5342 5338 5334
5533 5529 5527 5527 5527 5525 5522 5516 5510 5512 5520 5522 5514 5511 5510 5507 5503 5502 5502 5501 5500 5499 5498 5495 5492 5490 5486 5481 5479 5477 5477 5477 5474 5471 5470 5467 5465 5463 5462 5460 5458 5457 5455 5454 5452 5450 5448 5446 5444 5442 5440 5438 5436 5434 5432 5429 5426 5424 5420 5417 5414 5412 5409 5406 5403 5400 5396 5393 5389 5386 5382 5378 5374 5371 5367 5363 5358 5355 5352 5348 5343 5339 5335 5331 5327 5324
5524 5521 5521 5523 5521 5515 5512 5508 5502 5503 5511 5511 5503 5501 5500 5496 5494 5493 5491 5488 5487 5487 5485 5482 5481 5480 5475 5472 5469 5467 5467 5468 5466 5463 5461 5459 5457 5456 5454 5453 5451 5449 5447 5445 5443 5442 5440 5438 5436 5435 5432 5430 5428 5426 5424 5421 5418 5415 5411 5408 5405 5403 5401 5398 5394 5391 5388 5384 5381 5377 5374 5370 5366 5362 5358 5353 5349 5345 5342 5338 5334 5329 5325 5321 5317 5314
5515 5516 5517 5517 5513 5506 5503 5500 5494 5495 5502 5500 5494 5491 5489 5485 5484 5483 5480 5477 5475 5474 5473 5471 5470 5468 5465 5463 5460 5458 5458 5459 5457 5455 5454 5451 5450 5449 5447 5445 5444 5441 5439 5437 5435 5434 5432 5430 5428 5427 5425 5423 5420 5418 5415 5412 5409 5406 5403 5399 5397 5395 5392 5389 5386 5383 5379 5376 5373 5369 5365 5362 5358 5354 5349 5345 5341 5337 5333 5329 5325 5322 5318 5313 5308 5305
5507 5510 5510 5508 5505 5499 5494 5492 5487 5487 5493 5491 5484 5481 5478 5475 5474 5471 5467 5465 5464 5462 5461 5459 5458 5457 5455 5453 5451 5449 5449 5449 5447 5446 5445 5444 5444 5442 5440 5438 5437 5434 5432 5430 5428 5426 5424 5422 5421 5418 5416 5415 5412 5409 5407 5404 5400 5398 5394 5391 5388 5386 5384 5381 5377 5374 5371 5367 5364 5361 5357 5354 5350 5346 5342 5337 5332 5329 5325 5321 5318 5314 5310 5305 5300 5296
5502 5504 5499 5496 5497 5491 5484 5485 5483 5481 5484 5481 5475 5471 5468 5465 5464 5460 5456 5455 5454 5453 5452 5449 5448 5448 5447 5444 5443 5441 5440 5440 5439 5437 5437 5436 5435 5434 5432 5431 5429 5427 5425 5423 5421 5419 5417 5415 5413 5410 5408 5406 5403 5400 5398 5395 5391 5388 5385 5382 5380 5378 5375 5372 5369 5366 5362 5359 5356 5353 5349 5346 5343 5339 5334 5330 5325 5321 5317 5314 5310 5307 5303 5297 5292 5288
5497 5497 5488 5485 5486 5480 5474 5479 5480 5475 5474 5474 5469 5465 5460 5456 5454 5451 5448 5446 5446 5445 5445 5442 5440 5439 5439 5437 5436 5434 5434 5433 5432 5430 5429 5428 5426 5425 5424 5422 5421 5419 5417 5415 5413 5411 5409 5407 5405 5403 5400 5397 5394 5391 5389 5386 5382 5379 5376 5374 5372 5369 5366 5363 5360 5357 5354 5351 5348 5345 5341 5338 5335 5331 5327 5323 5318 5314 5311 5307 5303 5300 5295 5290 5284 5281
5489 5488 5481 5476 5475 5469 5466 5471 5471 5465 5464 5467 5464 5458 5453 5449 5447 5443 5439 5437 5437 5437 5437 5436 5434 5432 5431 5430 5429 5428 5427 5427 5425 5424 5423 5421 5419 5417 5415 5413 5413 5411 5409 5407 5405 5403 5401 5399 5397 5394 5392 5389 5385 5383 5380 5377 5373 5370 5367 5365 5363 5360 5357 5354 5351 5348 5346 5342 5340 5336 5333 5330 5327 5323 5319 5315 5311 5308 5305 5301 5297 5293 5288 5283 5278 5274
5480 5477 5473 5468 5463 5460 5460 5462 5458 5453 5454 5458 5456 5451 5447 5443 5440 5435 5432 5430 5430 5429 5429 5428 5428 5426 5424 5423 5422 5421 5420 5419 5418 5416 5415 5413 5412 5409 5407 5405 5404 5402 5400 5399 5396 5394 5393 5390 5388 5386 5383 5380 5377 5374 5371 5368 5364 5361 5359 5356 5354 5351 5348 5346 5343 5340 5337 5335 5332 5329 5326 5322 5318 5314 5311 5308 5305 5302 5299 5295 5291 5287 5282 5277 5272 5267
5471 5467 5465 5457 5450 5451 5454 5454 5448 5441 5441 5445 5446 5442 5439 5436 5432 5428 5425 5424 5423 5422 5421 5420 5419 5418 5417 5416 5415 5414 5413 5412 5410 5408 5407 5406 5404 5402 5399 5397 5395 5393 5392 5390 5388 5386 5384 5382 5379 5377 5374 5371 5368 5365 5362 5359 5355 5352 5350 5348 5345 5342 5340 5337 5335 5333 5330 5327 5324 5321 5318 5315 5311 5307 5303 5301 5299 5297 5294 5290 5285 5280 5275 5272 5267 5261
5462 5457 5454 5447 5441 5441 5444 5444 5439 5431 5428 5431 5434 5433 5431 5429 5425 5421 5419 5418 5417 5416 5413 5412 5411 5411 5409 5408 5408 5407 5406 5404 5403 5401 5399 5398 5396 5394 5391 5389 5387 5385 5383 5381 5380 5378 5376 5373 5371 5368 5365 5363 5359 5356 5354 5350 5346 5344 5342 5339 5337 5334 5332 5329 5328 5326 5323 5320 5317 5314 5311 5307 5304 5300 5297 5295 5293 5291 5289 5286 5281 5276 5270 5265 5261 5256